Simultaneous Nadir Overpasses (SNOs) Predictions

Prediction of SNOs between GOES-14 and AQUA Satellite Orbit:

Table of predicted SNOs for the next 14.0 days since TLE Epoch: 12/9/2023
Index Date Time (GOES-14) GOES-14 Lat,Lon AQUA Lat,Lon Distance(km) Time Diff (sec)
1 12/10/2023 20:57:54 0.06,-108.61 0.88,-104.70 443.69 80
2 12/11/2023 09:15:44 -0.07,-108.63 0.14,-109.67 118.19 80
3 12/13/2023 09:03:13 -0.06,-108.62 -0.61,-105.96 302.65 80
4 12/13/2023 21:21:11 0.08,-108.60 -0.44,-110.95 268.53 80
5 12/15/2023 21:08:40 0.07,-108.58 0.34,-107.24 152.03 80
6 12/16/2023 09:26:30 -0.08,-108.60 0.67,-112.21 410.08 80
7 12/18/2023 09:13:58 -0.08,-108.59 -0.08,-108.49 10.98 80
8 12/20/2023 08:58:47 -0.07,-108.59 -0.92,-104.79 432.19 80
9 12/20/2023 21:16:43 0.08,-108.56 -0.15,-109.78 138.51 80
10 12/22/2023 21:04:11 0.08,-108.55 0.60,-106.06 283.23 80
